| time (UTC) | temp C | wind direction | speed KPH | gust KPH | rain 1hr cm | rain 24hr cm | rain mn cm | humidity % | barometer mb |
| 20260508131514 | 14 | 205 | 6.4 | 16.1 | 0.00 | 0.00 | 0.00 | 67 | 1009.2 |
| 20260508130012 | 12 | 209 | 3.2 | 8.0 | 0.00 | 0.00 | 0.00 | 71 | 1009.4 |
| 20260508124519 | 11 | 176 | 0.0 | 8.0 | 0.00 | 0.00 | 0.00 | 73 | 1009.4 |
| 20260508123012 | 11 | 188 | 1.6 | 4.8 | 0.00 | 0.00 | 0.00 | 75 | 1009.0 |
| 20260508121509 | 10 | 203 | 0.0 | 8.0 | 0.00 | 0.00 | 0.00 | 76 | 1009.0 |
| 20260508120009 | 10 | 174 | 1.6 | 3.2 | 0.00 | 0.00 | 0.00 | 78 | 1008.9 |
| 20260508114505 | 10 | 183 | 0.0 | 0.0 | 0.00 | 0.00 | 0.00 | 75 | 1008.9 |
| 20260508113002 | 10 | 198 | 0.0 | 3.2 | 0.00 | 0.00 | 0.00 | 73 | 1009.1 |
| 20260508111603 | 11 | 207 | 3.2 | 9.7 | 0.00 | 0.00 | 0.00 | 72 | 1009.1 |
| 20260508104558 | 11 | 210 | 3.2 | 12.9 | 0.00 | 0.00 | 0.00 | 71 | 1009.2 |
| 20260508103051 | 12 | 183 | 4.8 | 9.7 | 0.00 | 0.00 | 0.00 | 70 | 1009.4 |
| 20260508101550 | 12 | 176 | 4.8 | 12.9 | 0.00 | 0.00 | 0.00 | 68 | 1009.5 |
| 20260508100045 | 12 | 186 | 3.2 | 11.3 | 0.00 | 0.00 | 0.00 | 67 | 1009.4 |
| 20260508094543 | 12 | 193 | 4.8 | 12.9 | 0.00 | 0.00 | 0.00 | 66 | 1009.6 |
| 20260508093041 | 12 | 172 | 6.4 | 14.5 | 0.00 | 0.00 | 0.00 | 66 | 1009.8 |
| 20260508091605 | 12 | 181 | 6.4 | 14.5 | 0.00 | 0.00 | 0.00 | 65 | 1010.0 |
| 20260508090039 | 12 | 193 | 6.4 | 11.3 | 0.00 | 0.00 | 0.00 | 64 | 1010.2 |
| 20260508084537 | 13 | 195 | 8.0 | 16.1 | 0.00 | 0.00 | 0.00 | 62 | 1010.1 |
| 20260508083038 | 13 | 184 | 8.0 | 17.7 | 0.00 | 0.00 | 0.00 | 60 | 1010.1 |
| 20260508081532 | 13 | 180 | 9.7 | 19.3 | 0.00 | 0.00 | 0.00 | 59 | 1010.0 |
| 20260508080038 | 13 | 193 | 3.2 | 8.0 | 0.00 | 0.00 | 0.00 | 58 | 1010.3 |
| 20260508074529 | 13 | 190 | 3.2 | 9.7 | 0.00 | 0.00 | 0.00 | 56 | 1010.4 |
| 20260508073034 | 13 | 193 | 3.2 | 9.7 | 0.00 | 0.00 | 0.00 | 54 | 1010.4 |
| 20260508071530 | 13 | 175 | 3.2 | 9.7 | 0.00 | 0.00 | 0.00 | 53 | 1010.5 |
| 20260508070023 | 12 | 200 | 1.6 | 4.8 | 0.00 | 0.00 | 0.00 | 53 | 1010.7 |
| 20260508064530 | 12 | 167 | 0.0 | 3.2 | 0.00 | 0.00 | 0.00 | 52 | 1010.8 |
| 20260508063018 | 13 | 180 | 0.0 | 1.6 | 0.00 | 0.00 | 0.00 | 50 | 1010.8 |
| 20260508061515 | 13 | 162 | 0.0 | 4.8 | 0.00 | 0.00 | 0.00 | 48 | 1011.0 |
| 20260508060012 | 13 | 176 | 1.6 | 4.8 | 0.00 | 0.00 | 0.00 | 47 | 1011.1 |
| 20260508054508 | 15 | 136 | 1.6 | 6.4 | 0.00 | 0.00 | 0.00 | 45 | 1011.2 |
| 20260508053006 | 15 | 134 | 1.6 | 9.7 | 0.00 | 0.00 | 0.00 | 43 | 1011.4 |
| 20260508051504 | 16 | 165 | 1.6 | 8.0 | 0.00 | 0.00 | 0.00 | 42 | 1011.3 |
| 20260508050058 | 16 | 144 | 4.8 | 11.3 | 0.00 | 0.00 | 0.00 | 42 | 1011.6 |
| 20260508044557 | 16 | 127 | 3.2 | 9.7 | 0.00 | 0.00 | 0.00 | 41 | 1011.7 |
| 20260508043057 | 16 | 139 | 1.6 | 8.0 | 0.00 | 0.00 | 0.00 | 40 | 1011.9 |
| 20260508041557 | 16 | 156 | 0.0 | 4.8 | 0.00 | 0.00 | 0.00 | 39 | 1011.9 |
| 20260508040056 | 16 | 148 | 0.0 | 4.8 | 0.00 | 0.00 | 0.00 | 38 | 1011.8 |
| 20260508034555 | 16 | 148 | 0.0 | 4.8 | 0.00 | 0.00 | 0.00 | 37 | 1011.9 |
| 20260508033054 | 17 | 113 | 1.6 | 6.4 | 0.00 | 0.00 | 0.00 | 35 | 1011.8 |
| 20260508031553 | 17 | 143 | 1.6 | 6.4 | 0.00 | 0.00 | 0.00 | 34 | 1011.6 |
| 20260508030054 | 17 | 115 | 0.0 | 6.4 | 0.00 | 0.00 | 0.00 | 32 | 1011.3 |
| 20260508024552 | 18 | 147 | 0.0 | 0.0 | 0.00 | 0.00 | 0.00 | 31 | 1011.2 |
| 20260508023052 | 18 | 159 | 0.0 | 3.2 | 0.00 | 0.00 | 0.00 | 31 | 1011.0 |
| 20260508021554 | 18 | 175 | 0.0 | 0.0 | 0.00 | 0.00 | 0.00 | 29 | 1010.8 |
| 20260508020104 | 19 | 120 | 0.0 | 0.0 | 0.00 | 0.00 | 0.00 | 28 | 1010.8 |
| 20260508014552 | 20 | 156 | 0.0 | 0.0 | 0.00 | 0.00 | 0.00 | 27 | 1010.7 |
| 20260508013050 | 22 | 195 | 0.0 | 6.4 | 0.00 | 0.00 | 0.00 | 25 | 1010.7 |
| 20260508011552 | 23 | 176 | 3.2 | 9.7 | 0.00 | 0.00 | 0.00 | 24 | 1010.7 |
| 20260508010059 | 23 | 165 | 3.2 | 12.9 | 0.00 | 0.00 | 0.00 | 24 | 1010.7 |
| 20260508004547 | 23 | 186 | 8.0 | 16.1 | 0.00 | 0.00 | 0.00 | 23 | 1010.6 |
| 20260508003047 | 23 | 199 | 11.3 | 19.3 | 0.00 | 0.00 | 0.00 | 23 | 1010.7 |
| 20260508001546 | 24 | 211 | 8.0 | 17.7 | 0.00 | 0.00 | 0.00 | 22 | 1010.8 |
| 20260508000047 | 24 | 207 | 6.4 | 17.7 | 0.00 | 0.00 | 0.00 | 22 | 1010.8 |
| 20260507234544 | 24 | 240 | 4.8 | 17.7 | 0.00 | 0.00 | 0.00 | 22 | 1010.8 |
| 20260507233043 | 24 | 217 | 4.8 | 19.3 | 0.00 | 0.00 | 0.00 | 21 | 1011.0 |
| 20260507231540 | 24 | 208 | 6.4 | 19.3 | 0.00 | 0.00 | 0.00 | 22 | 1011.2 |
| 20260507230054 | 24 | 212 | 3.2 | 17.7 | 0.00 | 0.00 | 0.00 | 23 | 1011.4 |
| 20260507224536 | 24 | 214 | 9.7 | 20.9 | 0.00 | 0.00 | 0.00 | 22 | 1011.8 |
| 20260507223105 | 23 | 213 | 8.0 | 24.1 | 0.00 | 0.00 | 0.00 | 23 | 1011.8 |
| 20260507221532 | 23 | 196 | 8.0 | 19.3 | 0.00 | 0.00 | 0.00 | 24 | 1012.0 |
| 20260507220029 | 23 | 80 | 4.8 | 14.5 | 0.00 | 0.00 | 0.00 | 23 | 1012.2 |
| 20260507214525 | 23 | 190 | 6.4 | 16.1 | 0.00 | 0.00 | 0.00 | 24 | 1012.4 |
| 20260507213022 | 23 | 159 | 6.4 | 19.3 | 0.00 | 0.00 | 0.00 | 24 | 1012.9 |
| 20260507211515 | 23 | 182 | 9.7 | 17.7 | 0.00 | 0.00 | 0.00 | 25 | 1013.2 |
| 20260507210014 | 22 | 224 | 4.8 | 17.7 | 0.00 | 0.00 | 0.00 | 26 | 1013.6 |
| 20260507204509 | 22 | 198 | 3.2 | 24.1 | 0.00 | 0.00 | 0.00 | 27 | 1013.9 |
| 20260507203019 | 22 | 248 | 11.3 | 20.9 | 0.00 | 0.00 | 0.00 | 26 | 1014.3 |
| 20260507201503 | 22 | 222 | 11.3 | 16.1 | 0.00 | 0.00 | 0.00 | 28 | 1014.5 |
| 20260507200000 | 21 | 191 | 11.3 | 22.5 | 0.00 | 0.00 | 0.00 | 30 | 1014.8 |
| 20260507194558 | 21 | 236 | 6.4 | 29.0 | 0.00 | 0.00 | 0.00 | 32 | 1015.2 |
| 20260507193055 | 20 | 257 | 9.7 | 19.3 | 0.00 | 0.00 | 0.00 | 32 | 1015.6 |
| 20260507191553 | 20 | 325 | 11.3 | 22.5 | 0.00 | 0.00 | 0.00 | 34 | 1015.8 |
| 20260507190052 | 20 | 274 | 8.0 | 17.7 | 0.00 | 0.00 | 0.00 | 38 | 1016.2 |
| 20260507184544 | 19 | 235 | 6.4 | 20.9 | 0.00 | 0.00 | 0.00 | 40 | 1016.5 |
| 20260507183042 | 18 | 241 | 11.3 | 20.9 | 0.00 | 0.00 | 0.00 | 41 | 1017.0 |
| 20260507181539 | 18 | 252 | 6.4 | 20.9 | 0.00 | 0.00 | 0.00 | 42 | 1017.3 |
| 20260507180036 | 18 | 212 | 8.0 | 19.3 | 0.00 | 0.00 | 0.00 | 45 | 1017.6 |
| 20260507174544 | 17 | 204 | 8.0 | 17.7 | 0.00 | 0.00 | 0.00 | 46 | 1017.9 |
| 20260507173029 | 16 | 245 | 11.3 | 17.7 | 0.00 | 0.00 | 0.00 | 49 | 1018.4 |
| 20260507171525 | 16 | 172 | 8.0 | 20.9 | 0.00 | 0.00 | 0.00 | 51 | 1018.6 |
| 20260507170022 | 15 | 194 | 9.7 | 20.9 | 0.00 | 0.00 | 0.00 | 53 | 1018.9 |
| 20260507164519 | 15 | 197 | 12.9 | 17.7 | 0.00 | 0.00 | 0.00 | 52 | 1019.1 |
| 20260507163016 | 14 | 222 | 9.7 | 19.3 | 0.00 | 0.00 | 0.00 | 55 | 1019.4 |
| 20260507161512 | 13 | 214 | 8.0 | 20.9 | 0.00 | 0.00 | 0.00 | 57 | 1019.4 |
| 20260507160010 | 12 | 229 | 9.7 | 19.3 | 0.00 | 0.00 | 0.00 | 60 | 1019.6 |
| 20260507154507 | 12 | 199 | 8.0 | 17.7 | 0.00 | 0.00 | 0.00 | 63 | 1019.7 |
| 20260507153003 | 11 | 202 | 9.7 | 17.7 | 0.00 | 0.00 | 0.00 | 67 | 1019.9 |
| 20260507151601 | 10 | 239 | 6.4 | 14.5 | 0.00 | 0.00 | 0.00 | 74 | 1020.0 |
| 20260507150056 | 8 | 207 | 6.4 | 16.1 | 0.00 | 0.00 | 0.00 | 80 | 1020.2 |
| 20260507144552 | 7 | 223 | 6.4 | 16.1 | 0.00 | 0.00 | 0.00 | 84 | 1020.3 |
| 20260507143054 | 6 | 198 | 4.8 | 11.3 | 0.00 | 0.00 | 0.00 | 87 | 1020.5 |
| 20260507141549 | 6 | 241 | 6.4 | 12.9 | 0.00 | 0.00 | 0.00 | 91 | 1020.7 |
| 20260507140049 | 5 | 260 | 4.8 | 12.9 | 0.00 | 0.00 | 0.00 | 92 | 1020.8 |
| 20260507134552 | 5 | 214 | 4.8 | 14.5 | 0.00 | 0.00 | 0.00 | 92 | 1020.9 |
| 20260507133051 | 4 | 258 | 3.2 | 11.3 | 0.00 | 0.00 | 0.00 | 93 | 1020.9 |